Regional Weather Roundup
Issued by NWS

Home | Current Version | Previous Version | Text Only | Print | Product List | Glossary Off
Versions: 1 2 3 4 5 6 7 8 9 10 11 12 13 14 15 16 17 18 19 20 21 22 23 24 25 26 27 28 29 30 31 32 33 34 35 36 37 38 39 40 41 42 43 44 45 46 47 48 49 50

000
ASUS45 KTFX 041719
RWRMT
MONTANA HOURLY WEATHER ROUNDUP
NATIONAL WEATHER SERVICE GREAT FALLS MT
1019 AM MST WED MAR 4 2015

NOTE: "FAIR" INDICATES FEW OR NO CLOUDS BELOW 12000 FEET WITH NO
SIGNIFICANT WEATHER AND/OR OBSTRUCTIONS TO VISIBILITY.

* THESE STATIONS ARE NOT UNDER NWS QUALITY CONTROL. THEY DO NOT
   REPORT WEATHER SUCH AS PRECIPITATION OR FOG.

MTZ001>007-043-041800-
WEST OF THE DIVIDE
CITY           SKY/WX    TMP DP  RH WIND       PRES   REMARKS
KALISPELL      SUNNY     19  10  68 NE6       30.25R WCI  11
MISSOULA       SUNNY     19  12  74 CALM      30.28S
BUTTE          SUNNY     12   3  67 CALM      30.12S
MULLAN PASS    SUNNY     16   3  56 SW6       30.08R WCI   7
* ANACONDA     SUNNY     19   7  59 SE7        N/A   WCI  10
* ESSEX        N/A       12  -1  56 SE1        N/A
* LINCOLN      N/A        4  -9  54 NE3        N/A
* LOOKOUT PASS N/A       22   8  55 SE2        N/A
* POLSON       N/A       20  16  84 SW2        N/A
* RONAN APT    SUNNY     21  12  68 N/A        N/A
* SEELEY LAKE  N/A       11   1  64 SW1        N/A
* THOMP F APT  SUNNY     15  -2  47 NW8G15     N/A   WCI   4
* YAAK HILL    N/A       14  12  92 SW2        N/A
$$

MTZ008-052>055-041800-
SOUTHWEST MONTANA
CITY           SKY/WX    TMP DP  RH WIND       PRES   REMARKS
BOZEMAN        SUNNY     12   1  61 SE3       30.19S
DILLON         SUNNY     16   7  67 SW5       30.14S WCI   8
* W YELLOWSTON SUNNY      1  -8  65 NW2        N/A
* THREE FORKS  SUNNY     12   5  73 N/A        N/A
* BOULDER HILL N/A       13   2  61 SW9        N/A   WCI   1
* MONIDA PASS  N/A       13   2  61 NW11       N/A
* RAYNOLDS PAS N/A        4  -8  57 S2         N/A
* WHITEHALL    N/A       18   5  57 SW2        N/A
* WISE RIVER   N/A       10   1  67 W6         N/A
$$

MTZ009>010-012-014-046-048-049-054-041800-
EAST SLOPES AND CENTRAL MONTANA
CITY           SKY/WX    TMP DP  RH WIND       PRES   REMARKS
CUT BANK       SUNNY     16   5  62 SE5       30.08S WCI   8
GREAT FALLS    SUNNY     19   7  59 SW12      30.12F WCI   6
HELENA         SUNNY     14   3  61 VRB3      30.20S
MALMSTROM AFB  SUNNY     19   5  54 SW10      30.15S WCI   8
* CONRAD       SUNNY     16   1  51 S10        N/A   WCI   4
* DEARBORN     N/A        9   5  84 S3         N/A
* EAST GLACIER N/A       21   3  45 W17        N/A   WCI   7
* MONARCH      N/A       11   0  61 S6         N/A   WCI   1
* PENDROY      N/A       14   1  56 SW3        N/A
* ROGERS PASS  N/A       14   5  67 SE8G17     N/A   WCI   3
* SWEET GRASS  N/A       10  -3  55 S10        N/A   WCI  -4
* WHITE SULPH  N/A       14   1  56 NW3        N/A
$$

MTZ011-013-016-021-035-040-045-047-050-051-041800-
NORTH CENTRAL MONTANA
CITY           SKY/WX    TMP DP  RH WIND       PRES   REMARKS
HAVRE          SUNNY     18   1  47 SW10      30.20F WCI   6
LEWISTOWN      SUNNY     12  -2  53 CALM      30.12S
* N BAR RANCH  SUNNY     14  -6  40 CALM      30.11R
* CHESTER      N/A       14   0  53 W3G8       N/A
* DENTON       N/A       16   2  54 S6         N/A   WCI   7
* GEYSER       N/A       18   4  54 NW12       N/A   WCI   5
* JUDITH GAP   N/A       14   0  53 SE1        N/A
* LOMA         N/A       15   3  59 SE8        N/A   WCI   4
$$

MTZ017>020-022>027-061-062-041800-
NORTHEAST MONTANA
CITY           SKY/WX    TMP DP  RH WIND       PRES   REMARKS
GLASGOW        SUNNY      3  -9  57 NW7       30.29S WCI  -9
GLENDIVE       PTCLDY     3  -8  60 NW8       30.29S WCI -10
JORDAN         SUNNY     10  -2  58 NW10      30.25S WCI  -4
SIDNEY         SUNNY      1 -11  56 NW12      30.37R WCI -16
WOLF POINT     SUNNY      7  -9  47 NW14      30.34R WCI -10
* BEAVER HILL  N/A        1  -9  62 NW13G21    N/A   WCI -17
* CIRCLE       N/A        6  -3  66 NW5G10     N/A   WCI  -3
* LINDSAY DVD  N/A        1  -8  65 NW15G20    N/A   WCI -18
* NAVAJO       N/A       -7 -16  64 NW9G14     N/A   WCI -24
* SACO         N/A        3  -7  63 W4         N/A
* SCOBEY APT   SUNNY     -6 -18  55 W10        N/A   WCI -23
$$

MTZ028>042-056>058-041800-
SOUTHCENTRAL AND SOUTHEAST MONTANA
CITY           SKY/WX    TMP DP  RH WIND       PRES   REMARKS
BAKER          PTSUNNY    5  -8  54 NW17      30.24R WCI -14
BILLINGS       SUNNY     12  -2  53 SW10      30.20S WCI  -1
LIVINGSTON     CLOUDY    16   3  56 NW10G24   30.13S WCI   4
MILES CITY     PTSUNNY    9  -2  61 NW8       30.29R WCI  -3
* LAUREL APT   SUNNY     12  -4  48 N/A        N/A
* ROUNDUP APT  SUNNY     18 -11  26 N/A        N/A
* ALZADA       N/A        8  -2  63 W17G22     N/A   WCI -10
* HYSHAM       N/A       13  -5  44 W8         N/A   WCI   2
* REED POINT   N/A       11   2  67 E5         N/A   WCI   2
$$

REGIONAL REPORTS...DAKOTAS
CITY           SKY/WX    TMP DP  RH WIND       PRES   REMARKS
WILLISTON      SUNNY    N/A N/A N/A N/A       30.36R
DICKINSON      CLOUDY     1  -9  62 NW18G29   30.23R WCI -20
BEACH          PTSUNNY    1  -9  62 N16G21    30.26R WCI -19
CROSBY         SUNNY     -8 -18  61 NW12      30.34R WCI -28
TIOGA          SUNNY     -8 -18  61 NW15      30.31R WCI -30
WATFORD CITY   SUNNY     -4 -17  53 NW14      30.31R WCI -24
BISMARCK       PTSUNNY    0 -15  48 NW20G29   30.33R WCI -22
GRAND FORKS    SUNNY      0 -11  59 NW15G23   30.29R WCI -19
FARGO          CLOUDY     0 -11  59 NW15      30.30R WCI -19
BUFFALO SD     SUNNY      7  -6  55 NW20      30.15R WCI -13
RAPID CITY     SUNNY     12   3  67 N22       30.21R WCI  -7
$$

REGIONAL REPORTS...WYOMING/IDAHO/WASHINGTON
CITY           SKY/WX    TMP DP  RH WIND       PRES   REMARKS
GILLETTE       SUNNY      9  -2  61 NW17      30.15S WCI  -9
SHERIDAN       PTSUNNY   10   1  67 W5        30.20R WCI   1
CODY           SUNNY     10   1  67 E6        30.12S
YELLOWSTONE LA SUNNY     -6 -11  78 SE3       30.05R
SALMON         SUNNY     21   9  60 CALM      30.25S
MULLAN PASS    SUNNY     16   3  56 SW6       30.08S WCI   7
SAND POINT     SUNNY     27  14  58 CALM      30.30R
SPOKANE        SUNNY     28  16  61 SE3       30.26R
$$

REGIONAL REPORTS...ALBERTA
CITY           SKY/WX    TMP DP  RH WIND       PRES   REMARKS
CALGARY        PTCLDY    16  -2  45 SW7       30.01S WCI   6
LETHBRIDGE     SUNNY     21   3  45 S9        30.09F WCI  11
MEDICINE HAT   N/A        9   1  70 VRB2      30.19F
EDMONTON       PTSUNNY    3  -6  66 S16       30.03F WCI -16
WATERTON GATE  N/A       23   7  50 SW23G32    N/A   WCI   7
CARDSTON       N/A       16   3  56 SE3        N/A
MILK RIVER     N/A       12  -2  53 W2         N/A
$$

REGIONAL REPORTS...SASKATCHEWAN
CITY           SKY/WX    TMP DP  RH WIND       PRES   REMARKS
SWIFT CURRENT  SUNNY     -6 -13  71 SW8       30.20R WCI -21
MOOSE JAW      N/A      -11 -20  63 W6        30.33S WCI -25
REGINA         N/A      -15 -22  70 W6        30.32R WCI -30
VAL MARIE      N/A        3  -8  60 NW3        N/A
ASSINIBOIA     N/A       -9 -18  64 W7         N/A   WCI -24
CORONACH       N/A       -6 -15  64 NW8        N/A   WCI -21

$$



USA.gov is the U.S. government's official web portal to all federal, state and local government web resources and services.